Lanai City, HI

12:56 AM HST on June 23, 2017 (GMT -1000)
Lanai City

Weather History for PHNY - August, 2012

Change the Weather History Date:

Friday, August 10, 2012

  Actual Average Record
Temperature  
Mean Temperature 75 °F -  
Max Temperature 82 °F 82 °F 87 °F (1954)
Min Temperature 68 °F 64 °F 61 °F (1955)
Cooling Degree Days 10    
Growing Degree Days 25 (Base 50)    
Moisture  
Dew Point 63 °F    
Average Humidity 68    
Maximum Humidity 84    
Minimum Humidity 49    
Precipitation  
Precipitation 0.00 in - - ()
Sea Level Pressure  
Sea Level Pressure 30.06 in    
Wind  
Wind Speed 15 mph (NE)    
Max Wind Speed 24 mph    
Max Gust Speed -    
Averages and records for this station are not official NWS values.
T = Trace of Precipitation, MM = Missing Value Source: NWS Daily Summary

Daily Weather History Graph

Daily Weather History Graph

Search for Another Location

Airport or City:

Trip Planner

Search our weather history database for the weather conditions in past years. The results will help you decide how hot, cold, wet, or windy it might be!

Date:

Astronomy

Aug. 10, 2012 Rise Set
Actual Time 6:05 AM HST 7:00 PM HST
Civil Twilight 5:42 AM HST 7:23 PM HST
Nautical Twilight 5:14 AM HST 7:50 PM HST
Astronomical Twilight 4:46 AM HST 8:18 PM HST
Moon 12:10 AM HST (8/10) 1:38 PM HST (8/10)
Length of Visible Light 13h 41m
Length of Day
12h 54m
Last Quarter, 39% of the Moon is Illuminated
Aug 10
Last Quarter
Aug 17
New
Aug 24
First Quarter
Aug 31
Full
Sep 8
Last Quarter

Hourly Weather History & Observations

Time (HST) Temp. Heat Index Dew Point Humidity Pressure Visibility Wind Dir Wind Speed Gust Speed Precip Events Conditions
12:56 AM 70.0 °F - 61.9 °F 75% 30.08 in - NE 11.5 mph - N/A   Mostly Cloudy
1:12 AM 69.8 °F - 62.6 °F 78% 30.14 in - NNE 11.5 mph - N/A   Clear
1:56 AM 68.9 °F - 61.9 °F 78% 30.06 in - NE 10.4 mph - N/A   Clear
2:56 AM 70.0 °F - 61.0 °F 73% 30.05 in - NE 16.1 mph - N/A   Clear
3:56 AM 68.0 °F - 61.9 °F 81% 30.05 in - NE 16.1 mph - N/A   Clear
4:56 AM 68.9 °F - 63.9 °F 84% 30.06 in - NE 13.8 mph - N/A   Clear
5:56 AM 68.9 °F - 63.0 °F 81% 30.07 in - East 9.2 mph - N/A   Clear
6:37 AM 69.8 °F - 62.6 °F 78% 30.14 in - ENE 8.1 mph - N/A   Mostly Cloudy
6:56 AM 70.0 °F - 61.9 °F 75% 30.09 in - East 6.9 mph - N/A   Mostly Cloudy
7:07 AM 71.6 °F - 60.8 °F 69% 30.15 in - NE 13.8 mph - N/A   Mostly Cloudy
7:56 AM 73.9 °F - 59.0 °F 59% 30.09 in - NE 19.6 mph - N/A   Clear
8:56 AM 75.9 °F - 61.0 °F 60% 30.09 in - ENE 16.1 mph - N/A   Clear
9:26 AM 78.8 °F - 62.6 °F 57% 30.15 in - NE 17.3 mph - N/A   Mostly Cloudy
9:56 AM 79.0 °F - 63.0 °F 58% 30.09 in - ENE 11.5 mph - N/A   Mostly Cloudy
10:34 AM 80.6 °F 81.8 °F 62.6 °F 54% 30.15 in - NE 20.7 mph - N/A   Mostly Cloudy
10:56 AM 81.0 °F 82.2 °F 63.0 °F 54% 30.07 in - NE 19.6 mph - N/A   Mostly Cloudy
11:04 AM 80.6 °F 81.8 °F 62.6 °F 54% 30.13 in - NE 18.4 mph - N/A   Mostly Cloudy
11:21 AM 80.6 °F 81.8 °F 62.6 °F 54% 30.12 in - NE 23.0 mph - N/A   Clear
11:56 AM 81.0 °F 82.5 °F 63.9 °F 56% 30.04 in - NE 23.0 mph - N/A   Clear
12:56 PM 82.9 °F 84.0 °F 63.0 °F 51% 30.02 in - NNE 18.4 mph - N/A   Clear
1:56 PM 82.9 °F 83.7 °F 61.9 °F 49% 30.01 in - NE 13.8 mph - N/A   Mostly Cloudy
2:56 PM 81.9 °F 83.1 °F 63.0 °F 53% 29.99 in - NE 18.4 mph - N/A   Clear
3:56 PM 79.9 °F - 63.0 °F 56% 29.98 in - NE 24.2 mph - N/A   Clear
4:56 PM 77.9 °F - 63.9 °F 62% 29.98 in - NE 23.0 mph - N/A   Clear
5:56 PM 73.9 °F - 63.9 °F 71% 30.00 in - NE 20.7 mph - N/A   Clear
6:56 PM 70.9 °F - 63.0 °F 76% 30.01 in - NE 20.7 mph - N/A   Clear
7:56 PM 70.0 °F - 63.0 °F 78% 30.02 in - NE 20.7 mph - N/A   Clear
8:56 PM 70.0 °F - 63.9 °F 81% 30.04 in - NE 17.3 mph - N/A   Clear
9:56 PM 70.0 °F - 63.9 °F 81% 30.04 in - ENE 9.2 mph - N/A   Clear
10:56 PM 70.0 °F - 63.9 °F 81% 30.04 in - NNE 16.1 mph - N/A   Clear
11:35 PM 69.8 °F - 64.4 °F 83% 30.10 in - NE 10.4 mph - N/A   Mostly Cloudy
11:56 PM 70.0 °F - 63.9 °F 81% 30.03 in - NE 10.4 mph - N/A   Mostly Cloudy